Location: Sternwarte ZA, Rosenfeld-Brittheim
(48.2889°N, 8.6789°E)
Time: 05:57:04
(UTC+02:00)

ISS - Pass Details

Date: 26 March 2020
Orbit: 417 x 423 km, 51.6° (Epoch: 29 March)

Event Time Altitude Azimuth Distance (km) Brightness Sun altitude
Rises 19:50:31 0° 270° (W) 2,358 1.7 -11.1°
Reaches altitude 10° 19:52:39 10° 276° (W) 1,495 0.5 -11.4°
Maximum altitude 19:55:55 48° 352° (N) 557 -3.0 -12.0°
Enters shadow 19:58:36 14° 66° (ENE) 1,269 -1.8 -12.4°
